,,PressureMeas_1m,,PRMeasQMR101_1,,RHStat155_1m_1,,SRMeasQMS101R_1m,,TAStat155_1m_1,,GenWind_1,,GenWind_1,
2017-06-28, 07:00:06,VALID,917.578,VALID,0.0,VALID,93.286,VALID,64.051,VALID,18.743,VALID,100.0,VALID,1.3,
2017-06-28, 07:01:06,VALID,917.603,VALID,0.0,VALID,93.396,VALID,48.916,VALID,18.701,VALID,103.0,VALID,1.13,
2017-06-28, 07:02:06,VALID,917.614,VALID,0.0,VALID,93.583,VALID,50.764,VALID,18.626,VALID,112.0,VALID,1.267,
2017-06-28, 07:03:06,VALID,917.627,VALID,0.0,VALID,93.797,VALID,65.458,VALID,18.512,VALID,102.0,VALID,1.086,
2017-06-28, 07:04:06,VALID,917.64,VALID,0.0,VALID,94.244,VALID,70.374,VALID,18.397,VALID,104.0,VALID,0.818,
2017-06-28, 07:05:06,VALID,917.654,VALID,0.0,VALID,94.769,VALID,76.622,VALID,18.336,VALID,104.0,VALID,0.498,
2017-06-28, 07:06:06,VALID,917.68,VALID,0.0,VALID,95.193,VALID,89.104,VALID,18.322,VALID,102.0,VALID,0.409,
2017-06-28, 07:07:06,VALID,917.71,VALID,0.0,VALID,95.379,VALID,107.663,VALID,18.327,VALID,104.0,VALID,0.466,
2017-06-28, 07:08:06,VALID,917.721,VALID,0.0,VALID,95.504,VALID,111.854,VALID,18.35,VALID,119.0,VALID,0.572,
2017-06-28, 07:09:06,VALID,917.747,VALID,0.0,VALID,95.67,VALID,101.413,VALID,18.39,VALID,107.0,VALID,0.524,
2017-06-28, 07:10:06,VALID,917.784,VALID,0.0,VALID,95.89,VALID,99.332,VALID,18.469,VALID,99.0,VALID,0.442,
2017-06-28, 07:11:06,VALID,917.789,VALID,0.0,VALID,95.807,VALID,119.851,VALID,18.52,VALID,102.0,VALID,0.606,
2017-06-28, 07:12:06,VALID,917.804,VALID,0.0,VALID,95.409,VALID,139.747,VALID,18.552,VALID,107.0,VALID,0.738,
2017-06-28, 07:13:06,VALID,917.807,VALID,0.0,VALID,95.321,VALID,147.482,VALID,18.62,VALID,101.0,VALID,0.746,
2017-06-28, 07:14:06,VALID,917.82,VALID,0.0,VALID,94.776,VALID,150.811,VALID,18.643,VALID,100.0,VALID,0.878,
2017-06-28, 07:15:06,VALID,917.821,VALID,0.0,VALID,94.511,VALID,153.719,VALID,18.654,VALID,114.0,VALID,0.944,
2017-06-28, 07:16:06,VALID,917.831,VALID,0.0,VALID,94.38,VALID,156.251,VALID,18.678,VALID,129.0,VALID,0.958,
2017-06-28, 07:17:06,VALID,917.848,VALID,0.0,VALID,94.738,VALID,159.193,VALID,18.743,VALID,137.0,VALID,0.79,
2017-06-28, 07:18:06,VALID,917.86,VALID,0.0,VALID,95.116,VALID,162.116,VALID,18.822,VALID,149.0,VALID,0.943,
2017-06-28, 07:19:06,VALID,917.857,VALID,0.0,VALID,94.751,VALID,165.393,VALID,18.864,VALID,147.0,VALID,1.017,
2017-06-28, 07:20:06,VALID,917.877,VALID,0.0,VALID,94.757,VALID,168.917,VALID,18.937,VALID,143.0,VALID,0.907,
2017-06-28, 07:21:06,VALID,917.88,VALID,0.0,VALID,94.533,VALID,172.502,VALID,18.991,VALID,139.0,VALID,0.976,
2017-06-28, 07:22:06,VALID,917.884,VALID,0.0,VALID,94.257,VALID,176.186,VALID,19.048,VALID,146.0,VALID,1.13,
2017-06-28, 07:23:06,VALID,917.898,VALID,0.0,VALID,94.062,VALID,179.889,VALID,19.069,VALID,142.0,VALID,1.098,
2017-06-28, 07:24:06,VALID,917.912,VALID,0.0,VALID,93.809,VALID,183.73,VALID,19.1,VALID,137.0,VALID,1.129,
2017-06-28, 07:25:06,VALID,917.933,VALID,0.0,VALID,93.922,VALID,187.569,VALID,19.175,VALID,135.0,VALID,1.309,
2017-06-28, 07:26:06,VALID,917.946,VALID,0.0,VALID,93.852,VALID,191.071,VALID,19.239,VALID,148.0,VALID,1.495,
2017-06-28, 07:27:06,VALID,917.966,VALID,0.0,VALID,93.011,VALID,194.575,VALID,19.209,VALID,156.0,VALID,1.689,
2017-06-28, 07:28:06,VALID,917.966,VALID,0.0,VALID,92.294,VALID,198.033,VALID,19.153,VALID,152.0,VALID,1.864,
2017-06-28, 07:29:06,VALID,917.975,VALID,0.0,VALID,92.587,VALID,201.157,VALID,19.162,VALID,163.0,VALID,1.322,
2017-06-28, 07:30:06,VALID,917.985,VALID,0.0,VALID,92.743,VALID,204.314,VALID,19.224,VALID,158.0,VALID,1.272,
2017-06-28, 07:31:06,VALID,917.995,VALID,0.0,VALID,92.513,VALID,208.016,VALID,19.279,VALID,168.0,VALID,1.245,
2017-06-28, 07:32:06,VALID,918.013,VALID,0.0,VALID,92.409,VALID,211.531,VALID,19.312,VALID,166.0,VALID,1.021,
2017-06-28, 07:33:06,VALID,918.025,VALID,0.0,VALID,92.812,VALID,214.854,VALID,19.371,VALID,163.0,VALID,0.692,
2017-06-28, 07:34:06,VALID,918.043,VALID,0.0,VALID,91.999,VALID,218.653,VALID,19.443,VALID,160.0,VALID,1.109,
2017-06-28, 07:35:06,VALID,918.062,VALID,0.0,VALID,91.259,VALID,223.0,VALID,19.491,VALID,151.0,VALID,1.319,
2017-06-28, 07:36:06,VALID,918.071,VALID,0.0,VALID,91.433,VALID,227.052,VALID,19.485,VALID,144.0,VALID,1.06,
2017-06-28, 07:37:06,VALID,918.088,VALID,0.0,VALID,91.841,VALID,230.984,VALID,19.459,VALID,152.0,VALID,0.474,
2017-06-28, 07:38:06,VALID,918.092,VALID,0.0,VALID,93.225,VALID,234.958,VALID,19.534,VALID,151.0,VALID,0.373,
2017-06-28, 07:39:06,VALID,918.099,VALID,0.0,VALID,93.678,VALID,238.507,VALID,19.652,VALID,158.0,VALID,0.613,
2017-06-28, 07:40:06,VALID,918.086,VALID,0.0,VALID,92.61,VALID,241.628,VALID,19.775,VALID,164.0,VALID,0.702,
2017-06-28, 07:41:06,VALID,918.055,VALID,0.0,VALID,91.909,VALID,244.93,VALID,19.879,VALID,159.0,VALID,0.914,
2017-06-28, 07:42:06,VALID,918.036,VALID,0.0,VALID,90.717,VALID,248.532,VALID,19.92,VALID,156.0,VALID,0.989,
2017-06-28, 07:43:06,VALID,918.017,VALID,0.0,VALID,90.93,VALID,251.877,VALID,19.965,VALID,154.0,VALID,0.724,
2017-06-28, 07:44:06,VALID,917.988,VALID,0.0,VALID,90.512,VALID,254.862,VALID,20.01,VALID,144.0,VALID,0.683,
2017-06-28, 07:45:06,VALID,917.966,VALID,0.0,VALID,89.593,VALID,258.046,VALID,20.03,VALID,147.0,VALID,0.887,
2017-06-28, 07:46:06,VALID,917.96,VALID,0.0,VALID,89.686,VALID,261.229,VALID,20.027,VALID,147.0,VALID,0.87,
2017-06-28, 07:47:06,VALID,917.947,VALID,0.0,VALID,90.063,VALID,264.474,VALID,20.061,VALID,148.0,VALID,0.661,
2017-06-28, 07:48:06,VALID,917.945,VALID,0.0,VALID,90.69,VALID,267.535,VALID,20.133,VALID,127.0,VALID,0.877,
2017-06-28, 07:49:06,VALID,917.94,VALID,0.0,VALID,90.056,VALID,270.741,VALID,20.221,VALID,127.0,VALID,0.907,
2017-06-28, 07:50:06,VALID,917.943,VALID,0.0,VALID,90.768,VALID,273.645,VALID,20.33,VALID,124.0,VALID,0.929,
2017-06-28, 07:51:06,VALID,917.948,VALID,0.0,VALID,91.065,VALID,276.72,VALID,20.444,VALID,115.0,VALID,0.862,
2017-06-28, 07:52:06,VALID,917.945,VALID,0.0,VALID,91.016,VALID,279.851,VALID,20.566,VALID,119.0,VALID,1.025,
2017-06-28, 07:53:06,VALID,917.956,VALID,0.0,VALID,89.768,VALID,283.813,VALID,20.66,VALID,136.0,VALID,1.195,
2017-06-28, 07:54:06,VALID,917.96,VALID,0.0,VALID,88.768,VALID,287.691,VALID,20.716,VALID,131.0,VALID,1.358,
2017-06-28, 07:55:06,VALID,917.972,VALID,0.0,VALID,89.24,VALID,291.003,VALID,20.723,VALID,149.0,VALID,1.544,
2017-06-28, 07:56:06,VALID,917.98,VALID,0.0,VALID,88.233,VALID,295.127,VALID,20.635,VALID,151.0,VALID,1.855,
2017-06-28, 07:57:06,VALID,917.972,VALID,0.0,VALID,88.497,VALID,299.383,VALID,20.407,VALID,156.0,VALID,1.899,
2017-06-28, 07:58:06,VALID,917.978,VALID,0.0,VALID,89.358,VALID,302.202,VALID,20.21,VALID,156.0,VALID,1.834,
2017-06-28, 07:59:06,VALID,917.975,VALID,0.0,VALID,90.111,VALID,305.413,VALID,20.058,VALID,156.0,VALID,1.687,
2017-06-28, 08:00:06,VALID,917.996,VALID,0.0,VALID,90.819,VALID,309.198,VALID,20.003,VALID,157.0,VALID,1.294,
2017-06-28, 08:01:06,VALID,917.995,VALID,0.0,VALID,90.935,VALID,312.309,VALID,19.96,VALID,152.0,VALID,1.57,
2017-06-28, 08:02:06,VALID,918.013,VALID,0.0,VALID,90.983,VALID,315.384,VALID,19.905,VALID,155.0,VALID,1.459,
2017-06-28, 08:03:06,VALID,918.041,VALID,0.0,VALID,91.174,VALID,318.526,VALID,19.868,VALID,167.0,VALID,1.206,
2017-06-28, 08:04:06,VALID,918.05,VALID,0.0,VALID,92.106,VALID,321.899,VALID,19.933,VALID,166.0,VALID,1.031,
2017-06-28, 08:05:06,VALID,918.074,VALID,0.0,VALID,92.118,VALID,325.713,VALID,20.049,VALID,164.0,VALID,0.482,
2017-06-28, 08:06:06,VALID,918.091,VALID,0.0,VALID,92.51,VALID,329.567,VALID,20.227,VALID,165.0,VALID,0.775,
2017-06-28, 08:07:06,VALID,918.099,VALID,0.0,VALID,90.888,VALID,333.407,VALID,20.347,VALID,163.0,VALID,0.652,
2017-06-28, 08:08:06,VALID,918.095,VALID,0.0,VALID,89.676,VALID,337.245,VALID,20.446,VALID,160.0,VALID,0.88,
2017-06-28, 08:09:06,VALID,918.106,VALID,0.0,VALID,88.489,VALID,341.295,VALID,20.528,VALID,161.0,VALID,1.237,
2017-06-28, 08:10:06,VALID,918.106,VALID,0.0,VALID,87.266,VALID,343.774,VALID,20.57,VALID,142.0,VALID,1.089,
2017-06-28, 08:11:06,VALID,918.112,VALID,0.0,VALID,87.909,VALID,337.725,VALID,20.618,VALID,136.0,VALID,1.087,
2017-06-28, 08:12:06,VALID,918.109,VALID,0.0,VALID,87.587,VALID,337.897,VALID,20.692,VALID,141.0,VALID,0.882,
2017-06-28, 08:13:06,VALID,918.108,VALID,0.0,VALID,88.583,VALID,353.731,VALID,20.772,VALID,135.0,VALID,0.478,
2017-06-28, 08:14:06,VALID,918.118,VALID,0.0,VALID,88.336,VALID,360.085,VALID,20.89,VALID,146.0,VALID,0.635,
2017-06-28, 08:15:06,VALID,918.113,VALID,0.0,VALID,85.742,VALID,363.76,VALID,20.973,VALID,132.0,VALID,0.95,
2017-06-28, 08:16:06,VALID,918.111,VALID,0.0,VALID,86.162,VALID,367.013,VALID,21.067,VALID,125.0,VALID,0.867,
2017-06-28, 08:17:06,VALID,918.11,VALID,0.0,VALID,85.514,VALID,370.268,VALID,21.143,VALID,134.0,VALID,1.168,
2017-06-28, 08:18:06,VALID,918.102,VALID,0.0,VALID,85.655,VALID,374.001,VALID,21.184,VALID,132.0,VALID,0.881,
2017-06-28, 08:19:06,VALID,918.103,VALID,0.0,VALID,87.648,VALID,377.52,VALID,21.304,VALID,139.0,VALID,0.815,
2017-06-28, 08:20:06,VALID,918.101,VALID,0.0,VALID,86.034,VALID,380.504,VALID,21.401,VALID,147.0,VALID,1.209,
2017-06-28, 08:21:06,VALID,918.104,VALID,0.0,VALID,83.975,VALID,383.808,VALID,21.38,VALID,151.0,VALID,1.517,
2017-06-28, 08:22:06,VALID,918.127,VALID,0.0,VALID,83.627,VALID,387.666,VALID,21.303,VALID,157.0,VALID,1.484,
2017-06-28, 08:23:06,VALID,918.146,VALID,0.0,VALID,85.603,VALID,390.962,VALID,21.326,VALID,152.0,VALID,0.802,
2017-06-28, 08:24:06,VALID,918.164,VALID,0.0,VALID,85.243,VALID,394.279,VALID,21.409,VALID,130.0,VALID,0.902,
2017-06-28, 08:25:06,VALID,918.176,VALID,0.0,VALID,84.069,VALID,398.284,VALID,21.474,VALID,135.0,VALID,0.932,
2017-06-28, 08:26:06,VALID,918.18,VALID,0.0,VALID,83.348,VALID,402.254,VALID,21.519,VALID,152.0,VALID,1.177,
2017-06-28, 08:27:06,VALID,918.186,VALID,0.0,VALID,83.716,VALID,405.761,VALID,21.502,VALID,138.0,VALID,0.992,
2017-06-28, 08:28:06,VALID,918.195,VALID,0.0,VALID,85.264,VALID,409.033,VALID,21.568,VALID,138.0,VALID,1.019,
2017-06-28, 08:29:06,VALID,918.189,VALID,0.0,VALID,83.278,VALID,412.182,VALID,21.579,VALID,153.0,VALID,1.086,
2017-06-28, 08:30:06,VALID,918.18,VALID,0.0,VALID,83.429,VALID,415.745,VALID,21.561,VALID,142.0,VALID,1.017,
2017-06-28, 08:31:07,VALID,918.191,VALID,0.0,VALID,81.227,VALID,419.668,VALID,21.534,VALID,158.0,VALID,0.87,
2017-06-28, 08:32:07,VALID,918.193,VALID,0.0,VALID,83.696,VALID,422.893,VALID,21.601,VALID,161.0,VALID,0.98,
2017-06-28, 08:33:07,VALID,918.191,VALID,0.0,VALID,83.576,VALID,426.042,VALID,21.679,VALID,155.0,VALID,0.768,
2017-06-28, 08:34:07,VALID,918.194,VALID,0.0,VALID,84.196,VALID,429.374,VALID,21.768,VALID,160.0,VALID,1.009,
2017-06-28, 08:35:07,VALID,918.193,VALID,0.0,VALID,84.105,VALID,432.842,VALID,21.844,VALID,161.0,VALID,0.585,
2017-06-28, 08:36:07,VALID,918.192,VALID,0.0,VALID,83.086,VALID,436.565,VALID,21.975,VALID,168.0,VALID,0.533,
2017-06-28, 08:37:07,VALID,918.211,VALID,0.0,VALID,83.103,VALID,440.897,VALID,22.149,VALID,146.0,VALID,0.532,
2017-06-28, 08:38:07,VALID,918.204,VALID,0.0,VALID,81.625,VALID,444.82,VALID,22.326,VALID,165.0,VALID,0.675,
2017-06-28, 08:39:07,VALID,918.203,VALID,0.0,VALID,80.788,VALID,447.929,VALID,22.446,VALID,179.0,VALID,0.542,
2017-06-28, 08:40:07,VALID,918.204,VALID,0.0,VALID,80.095,VALID,451.194,VALID,22.601,VALID,185.0,VALID,0.344,
2017-06-28, 08:41:07,VALID,918.212,VALID,0.0,VALID,79.782,VALID,454.718,VALID,22.733,VALID,144.0,VALID,0.53,
2017-06-28, 08:42:07,VALID,918.221,VALID,0.0,VALID,81.853,VALID,457.789,VALID,22.737,VALID,91.0,VALID,0.564,
2017-06-28, 08:43:07,VALID,918.239,VALID,0.0,VALID,82.96,VALID,461.328,VALID,22.855,VALID,98.0,VALID,0.661,
2017-06-28, 08:44:07,VALID,918.249,VALID,0.0,VALID,80.582,VALID,464.355,VALID,22.874,VALID,108.0,VALID,0.437,
2017-06-28, 08:45:07,VALID,918.256,VALID,0.0,VALID,79.758,VALID,467.173,VALID,22.817,VALID,134.0,VALID,0.574,
2017-06-28, 08:46:07,VALID,918.254,VALID,0.0,VALID,81.888,VALID,470.334,VALID,22.851,VALID,122.0,VALID,0.234,
2017-06-28, 08:47:07,VALID,918.252,VALID,0.0,VALID,80.825,VALID,473.722,VALID,22.975,VALID,140.0,VALID,0.489,
2017-06-28, 08:48:07,VALID,918.251,VALID,0.0,VALID,80.099,VALID,477.423,VALID,22.986,VALID,142.0,VALID,0.482,
2017-06-28, 08:49:07,VALID,918.229,VALID,0.0,VALID,82.729,VALID,481.147,VALID,23.021,VALID,57.0,VALID,0.909,
2017-06-28, 08:50:07,VALID,918.233,VALID,0.0,VALID,83.124,VALID,484.333,VALID,23.176,VALID,33.0,VALID,0.9,
2017-06-28, 08:51:07,VALID,918.219,VALID,0.0,VALID,82.69,VALID,487.972,VALID,23.439,VALID,47.0,VALID,1.195,
2017-06-28, 08:52:07,VALID,918.221,VALID,0.0,VALID,79.962,VALID,491.767,VALID,23.483,VALID,55.0,VALID,0.406,
2017-06-28, 08:53:07,VALID,918.221,VALID,0.0,VALID,81.543,VALID,495.831,VALID,23.409,VALID,45.0,VALID,0.478,
2017-06-28, 08:54:07,VALID,918.217,VALID,0.0,VALID,81.735,VALID,498.573,VALID,23.364,VALID,87.0,VALID,0.698,
2017-06-28, 08:55:07,VALID,918.231,VALID,0.0,VALID,82.807,VALID,501.137,VALID,23.262,VALID,77.0,VALID,0.53,
2017-06-28, 08:56:07,VALID,918.239,VALID,0.0,VALID,83.981,VALID,503.604,VALID,23.359,VALID,53.0,VALID,0.738,
2017-06-28, 08:57:07,VALID,918.261,VALID,0.0,VALID,82.802,VALID,506.955,VALID,23.516,VALID,98.0,VALID,0.466,
2017-06-28, 08:58:07,VALID,918.287,VALID,0.0,VALID,80.69,VALID,509.1,VALID,23.627,VALID,142.0,VALID,0.152,
